Terug naar catalogus

BREEZE-M DEB

ActiefHEO
NORAD 34244·DEBRIS·🇷🇺 Russia

Gelanceerd Feb 28, 2006 vanaf Baikonur Cosmodrome

Loading…

Volgende Passages (komende 24 uur)

TLE

VersSource: Space-Track

Epoch: Sep 11, 2026, 01:51 UTC

1 34244U 06006BK  26254.07761661  .00001719  00000-0  31645-2 0  9991
2 34244  51.9950 160.3198 4737451 187.3971 161.9796  5.77327223 50588

Volg BREEZE-M DEB in realtime met AllMySat

Download on the App Store